Time,TemperatureF,DewpointF,PressureIn,WindDirection,WindDirectionDegrees,WindSpeedMPH,WindSpeedGustMPH,Humidity,HourlyPrecipIn,Conditions,Clouds,dailyrainin,SoftwareType,DateUTC
2013-02-02 00:00:00,30.6,9.9,30.21,West,270,3.6,3.6,42,0.00,,,0.00,VWS V14.01,2013-02-02 06:00:00,
2013-02-02 00:05:00,30.9,10.3,30.21,West,270,3.1,3.1,42,0.00,,,0.00,VWS V14.01,2013-02-02 06:05:00,
2013-02-02 00:10:00,30.9,10.3,30.21,West,270,3.1,3.1,42,0.00,,,0.00,VWS V14.01,2013-02-02 06:10:00,
2013-02-02 00:15:00,30.6,9.9,30.21,West,270,3.1,4.0,42,0.00,,,0.00,VWS V14.01,2013-02-02 06:15:00,
2013-02-02 00:20:00,30.7,10.1,30.21,West,270,2.2,3.1,42,0.00,,,0.00,VWS V14.01,2013-02-02 06:20:00,
2013-02-02 00:25:00,30.7,10.1,30.21,West,270,3.1,3.1,42,0.00,,,0.00,VWS V14.01,2013-02-02 06:25:00,
2013-02-02 00:30:00,30.7,10.1,30.21,West,270,0.0,0.0,42,0.00,,,0.00,VWS V14.01,2013-02-02 06:30:00,
2013-02-02 00:35:00,30.6,9.9,30.21,West,270,2.7,2.7,42,0.00,,,0.00,VWS V14.01,2013-02-02 06:35:00,
2013-02-02 00:40:00,30.9,10.3,30.21,West,270,3.6,3.6,42,0.00,,,0.00,VWS V14.01,2013-02-02 06:40:00,
2013-02-02 00:45:00,30.7,10.1,30.21,West,270,2.7,2.7,42,0.00,,,0.00,VWS V14.01,2013-02-02 06:45:00,
2013-02-02 00:50:00,30.4,9.8,30.21,West,270,3.1,3.1,42,0.00,,,0.00,VWS V14.01,2013-02-02 06:50:00,
2013-02-02 00:55:00,30.2,10.1,30.21,West,270,5.8,5.8,42,0.00,,,0.00,VWS V14.01,2013-02-02 06:55:00,
2013-02-02 01:00:00,30.2,10.1,30.21,West,270,0.0,0.0,42,0.00,,,0.00,VWS V14.01,2013-02-02 07:00:00,
2013-02-02 01:05:00,30.2,10.1,30.21,West,270,0.0,0.0,42,0.00,,,0.00,VWS V14.01,2013-02-02 07:05:00,
2013-02-02 01:10:00,30.2,10.1,30.21,West,270,0.0,0.0,42,0.00,,,0.00,VWS V14.01,2013-02-02 07:10:00,
2013-02-02 01:15:00,30.2,10.1,30.21,West,270,0.0,0.0,42,0.00,,,0.00,VWS V14.01,2013-02-02 07:15:00,
2013-02-02 01:20:00,30.9,10.3,30.21,West,270,4.0,4.0,42,0.00,,,0.00,VWS V14.01,2013-02-02 07:20:00,
2013-02-02 01:25:00,30.6,10.5,30.21,West,270,3.6,4.0,42,0.00,,,0.00,VWS V14.01,2013-02-02 07:25:00,
2013-02-02 01:30:00,30.6,10.5,30.21,WNW,292,3.6,3.6,42,0.00,,,0.00,VWS V14.01,2013-02-02 07:30:00,
2013-02-02 01:35:00,30.7,10.6,30.21,West,270,2.2,3.1,42,0.00,,,0.00,VWS V14.01,2013-02-02 07:35:00,
2013-02-02 01:40:00,30.4,10.3,30.21,West,270,3.1,3.1,42,0.00,,,0.00,VWS V14.01,2013-02-02 07:40:00,
2013-02-02 01:45:00,30.6,10.5,30.21,West,270,0.0,0.0,42,0.00,,,0.00,VWS V14.01,2013-02-02 07:45:00,
2013-02-02 01:50:00,30.7,10.6,30.21,West,270,3.1,3.1,42,0.00,,,0.00,VWS V14.01,2013-02-02 07:50:00,
2013-02-02 01:55:00,30.7,10.6,30.21,West,270,4.0,4.0,42,0.00,,,0.00,VWS V14.01,2013-02-02 07:55:00,
2013-02-02 02:00:00,30.9,10.8,30.21,West,270,0.0,0.0,42,0.00,,,0.00,VWS V14.01,2013-02-02 08:00:00,
2013-02-02 02:05:00,30.7,10.6,30.21,West,270,3.6,3.6,42,0.00,,,0.00,VWS V14.01,2013-02-02 08:05:00,
2013-02-02 02:10:00,30.7,10.6,30.21,West,270,2.7,3.1,42,0.00,,,0.00,VWS V14.01,2013-02-02 08:10:00,
2013-02-02 02:15:00,30.6,10.5,30.21,West,270,0.0,0.0,42,0.00,,,0.00,VWS V14.01,2013-02-02 08:15:00,
2013-02-02 02:20:00,31.1,11.0,30.21,West,270,0.0,3.6,42,0.00,,,0.00,VWS V14.01,2013-02-02 08:20:00,
2013-02-02 02:25:00,30.7,10.6,30.21,West,270,3.1,3.6,42,0.00,,,0.00,VWS V14.01,2013-02-02 08:25:00,
2013-02-02 02:30:00,30.7,10.6,30.21,West,270,2.7,4.0,42,0.00,,,0.00,VWS V14.01,2013-02-02 08:30:00,
2013-02-02 02:35:00,30.6,10.5,30.21,West,270,4.0,4.0,42,0.00,,,0.00,VWS V14.01,2013-02-02 08:35:00,
2013-02-02 02:40:00,30.0,10.0,30.21,West,270,0.0,0.0,42,0.00,,,0.00,VWS V14.01,2013-02-02 08:40:00,
2013-02-02 02:45:00,29.7,9.7,30.21,West,270,0.0,0.0,42,0.00,,,0.00,VWS V14.01,2013-02-02 08:45:00,
2013-02-02 02:50:00,29.1,9.7,30.21,West,270,0.0,0.0,44,0.00,,,0.00,VWS V14.01,2013-02-02 08:50:00,
2013-02-02 02:55:00,28.6,9.2,30.21,West,270,0.0,0.0,44,0.00,,,0.00,VWS V14.01,2013-02-02 08:55:00,
2013-02-02 03:00:00,28.6,9.2,30.21,West,270,0.0,0.0,44,0.00,,,0.00,VWS V14.01,2013-02-02 09:00:00,
2013-02-02 03:05:00,27.9,9.0,30.18,West,270,0.0,0.0,44,0.00,,,0.00,VWS V14.01,2013-02-02 09:05:00,
2013-02-02 03:10:00,28.4,10.0,30.18,West,270,0.0,0.0,46,0.00,,,0.00,VWS V14.01,2013-02-02 09:10:00,
2013-02-02 03:15:00,27.9,9.5,30.18,West,270,0.0,0.0,46,0.00,,,0.00,VWS V14.01,2013-02-02 09:15:00,
2013-02-02 03:20:00,27.3,9.0,30.18,West,270,0.0,0.0,46,0.00,,,0.00,VWS V14.01,2013-02-02 09:20:00,
2013-02-02 03:25:00,27.5,9.2,30.18,West,270,0.0,0.0,46,0.00,,,0.00,VWS V14.01,2013-02-02 09:25:00,
2013-02-02 03:30:00,27.3,9.0,30.18,West,270,0.0,0.0,46,0.00,,,0.00,VWS V14.01,2013-02-02 09:30:00,
2013-02-02 03:35:00,27.0,8.7,30.21,West,270,0.0,0.0,46,0.00,,,0.00,VWS V14.01,2013-02-02 09:35:00,
2013-02-02 03:40:00,27.0,9.2,30.21,West,270,0.0,0.0,46,0.00,,,0.00,VWS V14.01,2013-02-02 09:40:00,
2013-02-02 03:45:00,26.2,9.0,30.21,West,270,0.0,0.0,48,0.00,,,0.00,VWS V14.01,2013-02-02 09:45:00,
2013-02-02 03:50:00,26.6,9.8,30.18,West,270,0.0,0.0,48,0.00,,,0.00,VWS V14.01,2013-02-02 09:50:00,
2013-02-02 03:55:00,26.2,9.5,30.18,West,270,0.0,0.0,48,0.00,,,0.00,VWS V14.01,2013-02-02 09:55:00,
2013-02-02 04:00:00,26.1,9.3,30.18,West,270,0.0,0.0,48,0.00,,,0.00,VWS V14.01,2013-02-02 10:00:00,
2013-02-02 04:05:00,25.7,9.9,30.18,West,270,0.0,0.0,50,0.00,,,0.00,VWS V14.01,2013-02-02 10:05:00,
2013-02-02 04:10:00,25.7,10.7,30.18,West,270,0.0,0.0,52,0.00,,,0.00,VWS V14.01,2013-02-02 10:10:00,
2013-02-02 04:15:00,25.7,11.2,30.18,West,270,0.0,0.0,54,0.00,,,0.00,VWS V14.01,2013-02-02 10:15:00,
2013-02-02 04:20:00,25.3,10.8,30.21,West,270,0.0,0.0,54,0.00,,,0.00,VWS V14.01,2013-02-02 10:20:00,
2013-02-02 04:25:00,25.5,11.0,30.21,West,270,0.0,0.0,54,0.00,,,0.00,VWS V14.01,2013-02-02 10:25:00,
2013-02-02 04:30:00,25.3,10.8,30.21,West,270,0.0,0.0,54,0.00,,,0.00,VWS V14.01,2013-02-02 10:30:00,
2013-02-02 04:35:00,25.3,10.8,30.18,West,270,0.0,0.0,54,0.00,,,0.00,VWS V14.01,2013-02-02 10:35:00,
2013-02-02 04:40:00,25.3,10.4,30.18,West,270,0.0,0.0,52,0.00,,,0.00,VWS V14.01,2013-02-02 10:40:00,
2013-02-02 04:45:00,25.2,10.2,30.18,West,270,0.0,0.0,52,0.00,,,0.00,VWS V14.01,2013-02-02 10:45:00,
2013-02-02 04:50:00,25.0,10.5,30.18,West,270,0.0,0.0,54,0.00,,,0.00,VWS V14.01,2013-02-02 10:50:00,
2013-02-02 04:55:00,25.2,11.1,30.18,West,270,0.0,0.0,54,0.00,,,0.00,VWS V14.01,2013-02-02 10:55:00,
2013-02-02 05:00:00,25.3,11.6,30.18,West,270,0.0,0.0,56,0.00,,,0.00,VWS V14.01,2013-02-02 11:00:00,
2013-02-02 05:05:00,25.3,11.6,30.18,West,270,0.0,0.0,56,0.00,,,0.00,VWS V14.01,2013-02-02 11:05:00,
2013-02-02 05:10:00,25.2,11.5,30.18,West,270,0.0,0.0,56,0.00,,,0.00,VWS V14.01,2013-02-02 11:10:00,
2013-02-02 05:15:00,25.0,11.3,30.18,West,270,0.0,0.0,56,0.00,,,0.00,VWS V14.01,2013-02-02 11:15:00,
2013-02-02 05:20:00,24.4,11.2,30.18,West,270,0.0,0.0,56,0.00,,,0.00,VWS V14.01,2013-02-02 11:20:00,
2013-02-02 05:25:00,24.3,11.0,30.18,West,270,0.0,0.0,56,0.00,,,0.00,VWS V14.01,2013-02-02 11:25:00,
2013-02-02 05:30:00,24.1,11.3,30.18,West,270,0.0,0.0,58,0.00,,,0.00,VWS V14.01,2013-02-02 11:30:00,
2013-02-02 05:35:00,23.9,11.1,30.18,West,270,0.0,0.0,58,0.00,,,0.00,VWS V14.01,2013-02-02 11:35:00,
2013-02-02 05:40:00,23.9,11.1,30.18,West,270,0.0,0.0,58,0.00,,,0.00,VWS V14.01,2013-02-02 11:40:00,
2013-02-02 05:45:00,23.7,11.3,30.18,West,270,0.0,0.0,58,0.00,,,0.00,VWS V14.01,2013-02-02 11:45:00,
2013-02-02 05:50:00,23.9,11.5,30.18,West,270,0.0,0.0,58,0.00,,,0.00,VWS V14.01,2013-02-02 11:50:00,
2013-02-02 05:55:00,23.7,11.3,30.18,West,270,0.0,0.0,58,0.00,,,0.00,VWS V14.01,2013-02-02 11:55:00,
2013-02-02 06:00:00,23.7,11.3,30.18,West,270,0.0,0.0,58,0.00,,,0.00,VWS V14.01,2013-02-02 12:00:00,
2013-02-02 06:05:00,23.7,11.3,30.21,West,270,0.0,0.0,58,0.00,,,0.00,VWS V14.01,2013-02-02 12:05:00,
2013-02-02 06:10:00,23.5,11.5,30.21,West,270,0.0,0.0,60,0.00,,,0.00,VWS V14.01,2013-02-02 12:10:00,
2013-02-02 06:15:00,23.5,11.5,30.21,West,270,0.0,0.0,60,0.00,,,0.00,VWS V14.01,2013-02-02 12:15:00,
2013-02-02 06:20:00,23.5,11.9,30.21,West,270,0.0,0.0,60,0.00,,,0.00,VWS V14.01,2013-02-02 12:20:00,
2013-02-02 06:25:00,23.5,11.9,30.21,West,270,0.0,0.0,60,0.00,,,0.00,VWS V14.01,2013-02-02 12:25:00,
2013-02-02 06:30:00,23.5,11.9,30.21,West,270,0.0,0.0,60,0.00,,,0.00,VWS V14.01,2013-02-02 12:30:00,
2013-02-02 06:35:00,23.5,11.9,30.21,West,270,0.0,0.0,60,0.00,,,0.00,VWS V14.01,2013-02-02 12:35:00,
2013-02-02 06:40:00,23.5,11.9,30.21,West,270,0.0,0.0,60,0.00,,,0.00,VWS V14.01,2013-02-02 12:40:00,
2013-02-02 06:45:00,23.5,11.9,30.21,West,270,0.0,0.0,60,0.00,,,0.00,VWS V14.01,2013-02-02 12:45:00,
2013-02-02 06:50:00,23.5,11.9,30.21,West,270,0.0,0.0,60,0.00,,,0.00,VWS V14.01,2013-02-02 12:50:00,
2013-02-02 06:55:00,23.5,11.9,30.21,West,270,0.0,0.0,60,0.00,,,0.00,VWS V14.01,2013-02-02 12:55:00,
2013-02-02 07:00:00,23.7,12.1,30.21,West,270,0.0,0.0,60,0.00,,,0.00,VWS V14.01,2013-02-02 13:00:00,
2013-02-02 07:05:00,23.9,12.2,30.21,West,270,0.0,0.0,60,0.00,,,0.00,VWS V14.01,2013-02-02 13:05:00,
2013-02-02 07:10:00,24.6,12.5,30.21,West,270,0.0,0.0,60,0.00,,,0.00,VWS V14.01,2013-02-02 13:10:00,
2013-02-02 07:15:00,24.6,12.5,30.21,West,270,0.0,0.0,60,0.00,,,0.00,VWS V14.01,2013-02-02 13:15:00,
2013-02-02 07:20:00,24.4,12.4,30.21,West,270,0.0,0.0,60,0.00,,,0.00,VWS V14.01,2013-02-02 13:20:00,
2013-02-02 07:25:00,24.6,12.5,30.21,West,270,0.0,0.0,60,0.00,,,0.00,VWS V14.01,2013-02-02 13:25:00,
2013-02-02 07:30:00,25.0,12.9,30.21,West,270,0.0,0.0,60,0.00,,,0.00,VWS V14.01,2013-02-02 13:30:00,
2013-02-02 07:35:00,25.7,13.2,30.21,West,270,0.0,0.0,58,0.00,,,0.00,VWS V14.01,2013-02-02 13:35:00,
2013-02-02 07:40:00,26.2,13.7,30.21,West,270,0.0,0.0,58,0.00,,,0.00,VWS V14.01,2013-02-02 13:40:00,
2013-02-02 07:45:00,27.1,14.5,30.21,West,270,0.0,0.0,58,0.00,,,0.00,VWS V14.01,2013-02-02 13:45:00,
2013-02-02 07:50:00,28.4,15.3,30.21,West,270,0.0,0.0,58,0.00,,,0.00,VWS V14.01,2013-02-02 13:50:00,
2013-02-02 07:55:00,29.8,15.9,30.21,West,270,0.0,0.0,56,0.00,,,0.00,VWS V14.01,2013-02-02 13:55:00,
2013-02-02 08:00:00,30.9,16.0,30.21,West,270,0.0,0.0,54,0.00,,,0.00,VWS V14.01,2013-02-02 14:00:00,
2013-02-02 08:05:00,32.2,16.8,30.21,West,270,0.0,0.0,52,0.00,,,0.00,VWS V14.01,2013-02-02 14:05:00,
2013-02-02 08:10:00,32.7,16.4,30.21,West,270,0.0,0.0,50,0.00,,,0.00,VWS V14.01,2013-02-02 14:10:00,
2013-02-02 08:15:00,34.0,17.1,30.21,West,270,0.0,0.0,50,0.00,,,0.00,VWS V14.01,2013-02-02 14:15:00,
2013-02-02 08:20:00,34.0,15.1,30.21,West,270,0.0,0.0,46,0.00,,,0.00,VWS V14.01,2013-02-02 14:20:00,
2013-02-02 08:25:00,34.7,15.3,30.24,West,270,0.0,0.0,44,0.00,,,0.00,VWS V14.01,2013-02-02 14:25:00,
2013-02-02 08:30:00,34.5,14.6,30.24,West,270,0.0,0.0,44,0.00,,,0.00,VWS V14.01,2013-02-02 14:30:00,
2013-02-02 08:35:00,35.2,15.3,30.24,West,270,0.0,0.0,44,0.00,,,0.00,VWS V14.01,2013-02-02 14:35:00,
2013-02-02 08:40:00,34.5,14.6,30.24,West,270,0.0,0.0,44,0.00,,,0.00,VWS V14.01,2013-02-02 14:40:00,
2013-02-02 08:45:00,34.0,14.1,30.24,West,270,0.0,0.0,44,0.00,,,0.00,VWS V14.01,2013-02-02 14:45:00,
2013-02-02 08:50:00,35.2,16.3,30.24,West,270,0.0,0.0,46,0.00,,,0.00,VWS V14.01,2013-02-02 14:50:00,
2013-02-02 08:55:00,36.7,17.1,30.24,West,270,0.0,0.0,44,0.00,,,0.00,VWS V14.01,2013-02-02 14:55:00,
2013-02-02 09:00:00,37.6,17.4,30.24,West,270,0.0,0.0,44,0.00,,,0.00,VWS V14.01,2013-02-02 15:00:00,
2013-02-02 09:05:00,38.1,17.4,30.24,WNW,292,2.7,2.7,42,0.00,,,0.00,VWS V14.01,2013-02-02 15:05:00,
2013-02-02 09:10:00,37.9,16.6,30.24,WNW,292,2.7,3.1,42,0.00,,,0.00,VWS V14.01,2013-02-02 15:10:00,
2013-02-02 09:15:00,38.7,17.3,30.24,WNW,292,0.0,0.0,42,0.00,,,0.00,VWS V14.01,2013-02-02 15:15:00,
2013-02-02 09:20:00,39.2,17.8,30.24,North,0,4.0,4.0,42,0.00,,,0.00,VWS V14.01,2013-02-02 15:20:00,
2013-02-02 09:25:00,39.2,17.8,30.24,North,0,4.9,4.9,42,0.00,,,0.00,VWS V14.01,2013-02-02 15:25:00,
2013-02-02 09:30:00,39.9,18.4,30.24,North,0,2.7,2.7,42,0.00,,,0.00,VWS V14.01,2013-02-02 15:30:00,
2013-02-02 09:35:00,40.3,18.8,30.24,North,0,4.0,5.8,42,0.00,,,0.00,VWS V14.01,2013-02-02 15:35:00,
2013-02-02 09:40:00,40.6,19.1,30.30,NNE,22,6.3,7.2,42,0.00,,,0.00,VWS V14.01,2013-02-02 15:40:00,
2013-02-02 09:45:00,40.5,18.9,30.30,NE,45,4.9,5.4,42,0.00,,,0.00,VWS V14.01,2013-02-02 15:45:00,
2013-02-02 09:50:00,40.3,18.8,30.30,NE,45,5.8,5.8,42,0.00,,,0.00,VWS V14.01,2013-02-02 15:50:00,
2013-02-02 09:55:00,39.9,18.4,30.27,NE,45,4.0,4.0,42,0.00,,,0.00,VWS V14.01,2013-02-02 15:55:00,
2013-02-02 10:00:00,40.1,19.1,30.27,NE,45,4.9,4.9,42,0.00,,,0.00,VWS V14.01,2013-02-02 16:00:00,
2013-02-02 10:05:00,40.6,19.6,30.27,NE,45,7.2,9.2,42,0.00,,,0.00,VWS V14.01,2013-02-02 16:05:00,
2013-02-02 10:10:00,40.5,18.9,30.30,ENE,68,8.1,8.1,42,0.00,,,0.00,VWS V14.01,2013-02-02 16:10:00,
2013-02-02 10:15:00,40.6,19.1,30.30,NE,45,7.6,8.1,42,0.00,,,0.00,VWS V14.01,2013-02-02 16:15:00,
2013-02-02 10:20:00,41.0,19.4,30.30,NE,45,8.3,8.3,42,0.00,,,0.00,VWS V14.01,2013-02-02 16:20:00,
2013-02-02 10:25:00,41.2,19.6,30.30,NE,45,11.0,11.4,42,0.00,,,0.00,VWS V14.01,2013-02-02 16:25:00,
2013-02-02 10:30:00,41.0,19.4,30.30,NE,45,8.7,8.7,42,0.00,,,0.00,VWS V14.01,2013-02-02 16:30:00,
2013-02-02 10:35:00,42.3,20.5,30.30,NE,45,7.6,10.5,42,0.00,,,0.00,VWS V14.01,2013-02-02 16:35:00,
2013-02-02 10:40:00,43.5,21.1,30.30,East,90,8.3,8.3,40,0.00,,,0.00,VWS V14.01,2013-02-02 16:40:00,
2013-02-02 10:45:00,43.2,20.2,30.30,East,90,11.9,11.9,40,0.00,,,0.00,VWS V14.01,2013-02-02 16:45:00,
2013-02-02 10:50:00,43.3,20.4,30.30,East,90,11.9,11.9,40,0.00,,,0.00,VWS V14.01,2013-02-02 16:50:00,
2013-02-02 10:55:00,43.3,20.4,30.30,ENE,68,7.6,7.6,40,0.00,,,0.00,VWS V14.01,2013-02-02 16:55:00,
2013-02-02 11:00:00,44.2,21.2,30.30,NE,45,6.3,7.6,40,0.00,,,0.00,VWS V14.01,2013-02-02 17:00:00,
2013-02-02 11:05:00,44.8,21.6,30.30,SE,135,0.0,0.0,40,0.00,,,0.00,VWS V14.01,2013-02-02 17:05:00,
2013-02-02 11:10:00,45.1,21.4,30.30,East,90,3.6,3.6,38,0.00,,,0.00,VWS V14.01,2013-02-02 17:10:00,
2013-02-02 11:15:00,45.5,22.3,30.30,East,90,0.0,0.0,40,0.00,,,0.00,VWS V14.01,2013-02-02 17:15:00,
2013-02-02 11:20:00,46.2,22.3,30.30,SE,135,4.5,6.3,38,0.00,,,0.00,VWS V14.01,2013-02-02 17:20:00,
2013-02-02 11:25:00,46.6,22.7,30.30,SE,135,0.0,0.0,38,0.00,,,0.00,VWS V14.01,2013-02-02 17:25:00,
2013-02-02 11:30:00,47.3,23.3,30.30,East,90,3.6,3.6,38,0.00,,,0.00,VWS V14.01,2013-02-02 17:30:00,
2013-02-02 11:35:00,47.7,23.6,30.30,East,90,4.5,4.5,38,0.00,,,0.00,VWS V14.01,2013-02-02 17:35:00,
2013-02-02 11:40:00,47.7,23.6,30.27,East,90,0.0,0.0,38,0.00,,,0.00,VWS V14.01,2013-02-02 17:40:00,
2013-02-02 11:45:00,47.7,23.6,30.27,East,90,2.2,2.2,38,0.00,,,0.00,VWS V14.01,2013-02-02 17:45:00,
2013-02-02 11:50:00,47.7,23.6,30.27,ENE,68,0.0,0.0,38,0.00,,,0.00,VWS V14.01,2013-02-02 17:50:00,
2013-02-02 11:55:00,48.7,24.0,30.27,NE,45,4.0,4.0,38,0.00,,,0.00,VWS V14.01,2013-02-02 17:55:00,
2013-02-02 12:00:00,48.6,24.4,30.27,NE,45,4.0,4.0,38,0.00,,,0.00,VWS V14.01,2013-02-02 18:00:00,
2013-02-02 12:05:00,48.7,24.0,30.27,NE,45,4.9,4.9,38,0.00,,,0.00,VWS V14.01,2013-02-02 18:05:00,
2013-02-02 12:10:00,49.3,24.5,30.27,NE,45,5.8,5.8,38,0.00,,,0.00,VWS V14.01,2013-02-02 18:10:00,
2013-02-02 12:15:00,49.6,24.8,30.27,East,90,0.0,0.0,38,0.00,,,0.00,VWS V14.01,2013-02-02 18:15:00,
2013-02-02 12:20:00,49.1,24.3,30.27,NE,45,8.3,8.3,38,0.00,,,0.00,VWS V14.01,2013-02-02 18:20:00,
2013-02-02 12:25:00,49.1,24.3,30.27,NE,45,6.3,6.3,38,0.00,,,0.00,VWS V14.01,2013-02-02 18:25:00,
2013-02-02 12:30:00,50.0,25.1,30.27,NE,45,0.0,0.0,38,0.00,,,0.00,VWS V14.01,2013-02-02 18:30:00,
2013-02-02 12:35:00,50.4,25.4,30.27,NE,45,4.5,4.5,38,0.00,,,0.00,VWS V14.01,2013-02-02 18:35:00,
2013-02-02 12:40:00,51.4,26.4,30.27,NE,45,0.0,0.0,38,0.00,,,0.00,VWS V14.01,2013-02-02 18:40:00,
2013-02-02 12:45:00,51.4,25.7,30.27,ENE,68,3.6,3.6,36,0.00,,,0.00,VWS V14.01,2013-02-02 18:45:00,
2013-02-02 12:50:00,52.7,26.9,30.27,NE,45,0.0,0.0,36,0.00,,,0.00,VWS V14.01,2013-02-02 18:50:00,
2013-02-02 12:55:00,51.6,25.2,30.27,NE,45,8.7,8.7,36,0.00,,,0.00,VWS V14.01,2013-02-02 18:55:00,
2013-02-02 13:00:00,51.4,25.7,30.27,NE,45,5.8,6.7,36,0.00,,,0.00,VWS V14.01,2013-02-02 19:00:00,
2013-02-02 13:05:00,51.4,25.7,30.27,East,90,8.1,9.6,36,0.00,,,0.00,VWS V14.01,2013-02-02 19:05:00,
2013-02-02 13:10:00,51.4,25.7,30.27,NE,45,7.6,7.6,36,0.00,,,0.00,VWS V14.01,2013-02-02 19:10:00,
2013-02-02 13:15:00,51.4,25.7,30.27,NE,45,7.6,8.7,36,0.00,,,0.00,VWS V14.01,2013-02-02 19:15:00,
2013-02-02 13:20:00,51.6,25.9,30.27,NE,45,5.4,5.4,36,0.00,,,0.00,VWS V14.01,2013-02-02 19:20:00,
2013-02-02 13:25:00,51.3,25.6,30.27,NE,45,7.6,8.7,36,0.00,,,0.00,VWS V14.01,2013-02-02 19:25:00,
2013-02-02 13:30:00,51.6,25.9,30.27,East,90,7.2,7.2,36,0.00,,,0.00,VWS V14.01,2013-02-02 19:30:00,
2013-02-02 13:35:00,52.3,25.9,30.27,NE,45,7.6,7.6,36,0.00,,,0.00,VWS V14.01,2013-02-02 19:35:00,
2013-02-02 13:40:00,51.8,25.4,30.24,NE,45,8.7,11.9,36,0.00,,,0.00,VWS V14.01,2013-02-02 19:40:00,
2013-02-02 13:45:00,52.5,26.7,30.24,NE,45,5.8,5.8,36,0.00,,,0.00,VWS V14.01,2013-02-02 19:45:00,
2013-02-02 13:50:00,52.5,26.0,30.24,NE,45,10.1,13.2,36,0.00,,,0.00,VWS V14.01,2013-02-02 19:50:00,
2013-02-02 13:55:00,52.9,25.6,30.24,ESE,112,3.1,3.1,34,0.00,,,0.00,VWS V14.01,2013-02-02 19:55:00,
2013-02-02 14:00:00,53.4,26.1,30.24,East,90,5.8,8.3,34,0.00,,,0.00,VWS V14.01,2013-02-02 20:00:00,
2013-02-02 14:05:00,52.7,25.5,30.24,ENE,68,8.7,10.1,34,0.00,,,0.00,VWS V14.01,2013-02-02 20:05:00,
2013-02-02 14:10:00,52.9,25.6,30.24,East,90,8.7,11.0,34,0.00,,,0.00,VWS V14.01,2013-02-02 20:10:00,
2013-02-02 14:15:00,53.2,26.0,30.24,ENE,68,11.4,11.4,34,0.00,,,0.00,VWS V14.01,2013-02-02 20:15:00,
2013-02-02 14:20:00,53.2,25.3,30.24,NE,45,8.7,8.7,34,0.00,,,0.00,VWS V14.01,2013-02-02 20:20:00,
2013-02-02 14:25:00,52.5,24.6,30.24,ENE,68,5.8,11.0,34,0.00,,,0.00,VWS V14.01,2013-02-02 20:25:00,
2013-02-02 14:30:00,54.0,25.9,30.24,ENE,68,8.3,11.0,34,0.00,,,0.00,VWS V14.01,2013-02-02 20:30:00,
2013-02-02 14:35:00,53.1,25.1,30.24,NE,45,10.5,12.8,34,0.00,,,0.00,VWS V14.01,2013-02-02 20:35:00,
2013-02-02 14:39:00,53.1,25.1,30.24,NE,45,6.3,10.1,34,0.00,,,0.00,VWS V14.01,2013-02-02 20:39:00,
2013-02-02 14:44:00,52.7,24.1,30.24,NE,45,10.1,12.8,32,0.00,,,0.00,VWS V14.01,2013-02-02 20:44:00,
2013-02-02 14:49:00,52.2,23.6,30.24,NE,45,12.8,17.0,32,0.00,,,0.00,VWS V14.01,2013-02-02 20:49:00,
2013-02-02 14:54:00,52.9,24.2,30.24,NE,45,9.2,10.5,32,0.00,,,0.00,VWS V14.01,2013-02-02 20:54:00,
2013-02-02 14:59:00,52.2,23.6,30.24,NE,45,10.1,13.2,32,0.00,,,0.00,VWS V14.01,2013-02-02 20:59:00,
2013-02-02 15:04:00,52.9,24.2,30.24,East,90,10.1,10.1,32,0.00,,,0.00,VWS V14.01,2013-02-02 21:04:00,
2013-02-02 15:09:00,52.9,24.2,30.24,NE,45,7.2,7.2,32,0.00,,,0.00,VWS V14.01,2013-02-02 21:09:00,
2013-02-02 15:14:00,52.9,24.2,30.24,NE,45,8.3,8.3,32,0.00,,,0.00,VWS V14.01,2013-02-02 21:14:00,
2013-02-02 15:19:00,52.9,24.2,30.24,East,90,8.3,10.1,32,0.00,,,0.00,VWS V14.01,2013-02-02 21:19:00,
2013-02-02 15:24:00,52.9,24.2,30.24,ENE,68,6.3,9.6,32,0.00,,,0.00,VWS V14.01,2013-02-02 21:24:00,
2013-02-02 15:29:00,53.1,24.4,30.24,NE,45,6.3,8.1,32,0.00,,,0.00,VWS V14.01,2013-02-02 21:29:00,
2013-02-02 15:34:00,52.5,23.9,30.24,NE,45,2.7,6.7,32,0.00,,,0.00,VWS V14.01,2013-02-02 21:34:00,
2013-02-02 15:39:00,52.7,24.1,30.24,NE,45,5.4,5.8,32,0.00,,,0.00,VWS V14.01,2013-02-02 21:39:00,
2013-02-02 15:44:00,52.9,24.2,30.24,NE,45,8.7,8.7,32,0.00,,,0.00,VWS V14.01,2013-02-02 21:44:00,
2013-02-02 15:49:00,53.1,24.4,30.24,NE,45,3.6,5.4,32,0.00,,,0.00,VWS V14.01,2013-02-02 21:49:00,
2013-02-02 15:54:00,53.4,25.4,30.24,ENE,68,3.1,7.2,34,0.00,,,0.00,VWS V14.01,2013-02-02 21:54:00,
2013-02-02 15:59:00,53.1,24.4,30.24,East,90,5.4,7.6,32,0.00,,,0.00,VWS V14.01,2013-02-02 21:59:00,
2013-02-02 16:04:00,52.9,24.2,30.24,East,90,6.7,8.1,32,0.00,,,0.00,VWS V14.01,2013-02-02 22:04:00,
2013-02-02 16:09:00,52.9,24.9,30.24,East,90,5.8,5.8,34,0.00,,,0.00,VWS V14.01,2013-02-02 22:09:00,
2013-02-02 16:14:00,52.7,24.1,30.24,East,90,8.7,8.7,32,0.00,,,0.00,VWS V14.01,2013-02-02 22:14:00,
2013-02-02 16:19:00,52.3,24.5,30.24,ENE,68,6.3,9.2,34,0.00,,,0.00,VWS V14.01,2013-02-02 22:19:00,
2013-02-02 16:24:00,52.7,24.8,30.24,NE,45,4.9,5.8,34,0.00,,,0.00,VWS V14.01,2013-02-02 22:24:00,
2013-02-02 16:29:00,52.7,24.8,30.24,NE,45,5.4,8.1,34,0.00,,,0.00,VWS V14.01,2013-02-02 22:29:00,
2013-02-02 16:34:00,52.3,24.5,30.24,ENE,68,10.5,10.5,34,0.00,,,0.00,VWS V14.01,2013-02-02 22:34:00,
2013-02-02 16:39:00,52.2,24.3,30.27,NE,45,3.1,8.3,34,0.00,,,0.00,VWS V14.01,2013-02-02 22:39:00,
2013-02-02 16:44:00,52.0,24.1,30.27,NE,45,4.0,6.3,34,0.00,,,0.00,VWS V14.01,2013-02-02 22:44:00,
2013-02-02 16:49:00,51.8,24.0,30.27,ENE,68,7.2,8.3,34,0.00,,,0.00,VWS V14.01,2013-02-02 22:49:00,
2013-02-02 16:54:00,51.6,23.8,30.24,NE,45,8.1,8.1,34,0.00,,,0.00,VWS V14.01,2013-02-02 22:54:00,
2013-02-02 16:59:00,51.6,23.8,30.24,NE,45,7.6,8.7,34,0.00,,,0.00,VWS V14.01,2013-02-02 22:59:00,
2013-02-02 17:04:00,51.3,23.5,30.24,NE,45,8.1,8.1,34,0.00,,,0.00,VWS V14.01,2013-02-02 23:04:00,
2013-02-02 17:09:00,51.1,23.4,30.24,ENE,68,7.2,7.2,34,0.00,,,0.00,VWS V14.01,2013-02-02 23:09:00,
2013-02-02 17:14:00,50.9,23.9,30.24,NE,45,5.8,5.8,34,0.00,,,0.00,VWS V14.01,2013-02-02 23:14:00,
2013-02-02 17:19:00,50.4,23.4,30.24,NE,45,9.6,10.1,34,0.00,,,0.00,VWS V14.01,2013-02-02 23:19:00,
2013-02-02 17:24:00,50.2,23.9,30.24,NE,45,10.1,11.9,36,0.00,,,0.00,VWS V14.01,2013-02-02 23:24:00,
2013-02-02 17:29:00,50.0,23.8,30.24,NE,45,9.2,9.2,36,0.00,,,0.00,VWS V14.01,2013-02-02 23:29:00,
2013-02-02 17:34:00,49.6,24.1,30.24,NE,45,7.2,8.7,36,0.00,,,0.00,VWS V14.01,2013-02-02 23:34:00,
2013-02-02 17:39:00,49.3,23.8,30.27,NE,45,7.6,7.6,36,0.00,,,0.00,VWS V14.01,2013-02-02 23:39:00,
2013-02-02 17:44:00,48.7,24.0,30.27,NE,45,5.8,7.6,38,0.00,,,0.00,VWS V14.01,2013-02-02 23:44:00,
2013-02-02 17:49:00,48.6,23.8,30.27,NE,45,6.3,6.3,38,0.00,,,0.00,VWS V14.01,2013-02-02 23:49:00,
2013-02-02 17:54:00,48.2,23.5,30.24,NE,45,4.0,4.0,38,0.00,,,0.00,VWS V14.01,2013-02-02 23:54:00,
2013-02-02 17:59:00,47.8,23.8,30.24,NE,45,3.1,5.8,38,0.00,,,0.00,VWS V14.01,2013-02-02 23:59:00,
2013-02-02 18:04:00,47.5,23.5,30.24,NE,45,0.0,0.0,38,0.00,,,0.00,VWS V14.01,2013-02-03 00:04:00,
2013-02-02 18:09:00,47.3,23.3,30.24,NE,45,0.0,0.0,38,0.00,,,0.00,VWS V14.01,2013-02-03 00:09:00,
2013-02-02 18:14:00,46.8,22.8,30.24,NE,45,0.0,0.0,38,0.00,,,0.00,VWS V14.01,2013-02-03 00:14:00,
2013-02-02 18:19:00,46.4,23.1,30.24,NE,45,0.0,0.0,40,0.00,,,0.00,VWS V14.01,2013-02-03 00:19:00,
2013-02-02 18:24:00,45.7,22.5,30.27,NE,45,0.0,0.0,40,0.00,,,0.00,VWS V14.01,2013-02-03 00:24:00,
2013-02-02 18:29:00,44.6,21.5,30.27,NE,45,0.0,0.0,40,0.00,,,0.00,VWS V14.01,2013-02-03 00:29:00,
2013-02-02 18:34:00,44.1,22.2,30.27,NE,45,0.0,0.0,42,0.00,,,0.00,VWS V14.01,2013-02-03 00:34:00,
2013-02-02 18:39:00,43.3,21.5,30.27,NE,45,0.0,0.0,42,0.00,,,0.00,VWS V14.01,2013-02-03 00:39:00,
2013-02-02 18:44:00,42.8,21.0,30.27,NE,45,0.0,0.0,42,0.00,,,0.00,VWS V14.01,2013-02-03 00:44:00,
2013-02-02 18:49:00,42.6,22.0,30.27,NE,45,0.0,0.0,44,0.00,,,0.00,VWS V14.01,2013-02-03 00:49:00,
2013-02-02 18:54:00,42.1,21.5,30.24,NE,45,0.0,0.0,44,0.00,,,0.00,VWS V14.01,2013-02-03 00:54:00,
2013-02-02 18:59:00,42.1,21.5,30.24,NE,45,0.0,0.0,44,0.00,,,0.00,VWS V14.01,2013-02-03 00:59:00,
2013-02-02 19:04:00,41.9,21.3,30.24,NE,45,0.0,0.0,44,0.00,,,0.00,VWS V14.01,2013-02-03 01:04:00,
2013-02-02 19:09:00,41.7,21.2,30.24,NE,45,0.0,0.0,44,0.00,,,0.00,VWS V14.01,2013-02-03 01:09:00,
2013-02-02 19:14:00,41.5,21.5,30.24,NE,45,0.0,0.0,44,0.00,,,0.00,VWS V14.01,2013-02-03 01:14:00,
2013-02-02 19:19:00,41.9,21.9,30.24,NE,45,0.0,0.0,44,0.00,,,0.00,VWS V14.01,2013-02-03 01:19:00,
2013-02-02 19:24:00,41.9,21.9,30.24,NE,45,0.0,0.0,44,0.00,,,0.00,VWS V14.01,2013-02-03 01:24:00,
2013-02-02 19:29:00,41.5,21.5,30.24,NE,45,0.0,0.0,44,0.00,,,0.00,VWS V14.01,2013-02-03 01:29:00,
2013-02-02 19:34:00,41.0,21.0,30.24,NE,45,0.0,0.0,44,0.00,,,0.00,VWS V14.01,2013-02-03 01:34:00,
2013-02-02 19:39:00,41.7,21.7,30.24,NE,45,0.0,0.0,44,0.00,,,0.00,VWS V14.01,2013-02-03 01:39:00,
2013-02-02 19:44:00,41.5,21.5,30.24,NE,45,0.0,0.0,44,0.00,,,0.00,VWS V14.01,2013-02-03 01:44:00,
2013-02-02 19:49:00,41.7,21.7,30.24,NE,45,0.0,0.0,44,0.00,,,0.00,VWS V14.01,2013-02-03 01:49:00,
2013-02-02 19:54:00,41.2,21.2,30.24,NE,45,0.0,0.0,44,0.00,,,0.00,VWS V14.01,2013-02-03 01:54:00,
2013-02-02 19:59:00,40.6,21.2,30.24,NE,45,0.0,0.0,46,0.00,,,0.00,VWS V14.01,2013-02-03 01:59:00,
2013-02-02 20:04:00,40.6,21.2,30.24,NE,45,0.0,0.0,46,0.00,,,0.00,VWS V14.01,2013-02-03 02:04:00,
2013-02-02 20:09:00,40.6,21.2,30.24,NE,45,0.0,0.0,46,0.00,,,0.00,VWS V14.01,2013-02-03 02:09:00,
2013-02-02 20:14:00,41.0,21.6,30.24,NE,45,0.0,0.0,46,0.00,,,0.00,VWS V14.01,2013-02-03 02:14:00,
2013-02-02 20:19:00,41.2,21.7,30.24,NE,45,0.0,0.0,46,0.00,,,0.00,VWS V14.01,2013-02-03 02:19:00,
2013-02-02 20:24:00,41.2,21.7,30.24,NE,45,0.0,0.0,46,0.00,,,0.00,VWS V14.01,2013-02-03 02:24:00,
2013-02-02 20:29:00,41.2,21.7,30.24,NE,45,0.0,0.0,46,0.00,,,0.00,VWS V14.01,2013-02-03 02:29:00,
2013-02-02 20:34:00,41.2,21.7,30.24,NE,45,0.0,0.0,46,0.00,,,0.00,VWS V14.01,2013-02-03 02:34:00,
2013-02-02 20:39:00,41.4,21.9,30.24,NE,45,0.0,0.0,46,0.00,,,0.00,VWS V14.01,2013-02-03 02:39:00,
2013-02-02 20:44:00,41.2,21.7,30.24,NE,45,0.0,0.0,46,0.00,,,0.00,VWS V14.01,2013-02-03 02:44:00,
2013-02-02 20:49:00,41.2,21.7,30.24,NE,45,0.0,0.0,46,0.00,,,0.00,VWS V14.01,2013-02-03 02:49:00,
2013-02-02 20:54:00,41.2,21.2,30.24,NE,45,0.0,0.0,44,0.00,,,0.00,VWS V14.01,2013-02-03 02:54:00,
2013-02-02 20:59:00,41.0,21.6,30.24,NE,45,0.0,0.0,46,0.00,,,0.00,VWS V14.01,2013-02-03 02:59:00,
2013-02-02 21:04:00,41.0,21.6,30.24,NE,45,0.0,0.0,46,0.00,,,0.00,VWS V14.01,2013-02-03 03:04:00,
2013-02-02 21:09:00,40.8,21.4,30.24,NE,45,0.0,0.0,46,0.00,,,0.00,VWS V14.01,2013-02-03 03:09:00,
2013-02-02 21:14:00,40.8,21.4,30.24,NE,45,0.0,0.0,46,0.00,,,0.00,VWS V14.01,2013-02-03 03:14:00,
2013-02-02 21:19:00,40.8,21.4,30.24,NE,45,0.0,0.0,46,0.00,,,0.00,VWS V14.01,2013-02-03 03:19:00,
2013-02-02 21:24:00,40.5,21.1,30.24,NE,45,0.0,0.0,46,0.00,,,0.00,VWS V14.01,2013-02-03 03:24:00,
2013-02-02 21:29:00,40.1,20.7,30.24,NE,45,0.0,0.0,46,0.00,,,0.00,VWS V14.01,2013-02-03 03:29:00,
2013-02-02 21:34:00,39.6,20.2,30.24,NE,45,0.0,0.0,46,0.00,,,0.00,VWS V14.01,2013-02-03 03:34:00,
2013-02-02 21:39:00,39.0,20.3,30.24,NE,45,0.0,0.0,46,0.00,,,0.00,VWS V14.01,2013-02-03 03:39:00,
2013-02-02 21:44:00,38.7,20.4,30.24,NE,45,0.0,0.0,48,0.00,,,0.00,VWS V14.01,2013-02-03 03:44:00,
2013-02-02 21:49:00,38.1,19.9,30.24,NE,45,0.0,0.0,48,0.00,,,0.00,VWS V14.01,2013-02-03 03:49:00,
2013-02-02 21:54:00,37.6,19.9,30.27,NE,45,0.0,0.0,48,0.00,,,0.00,VWS V14.01,2013-02-03 03:54:00,
2013-02-02 21:59:00,37.2,20.1,30.27,NE,45,0.0,0.0,50,0.00,,,0.00,VWS V14.01,2013-02-03 03:59:00,
2013-02-02 22:04:00,37.4,20.7,30.27,NE,45,0.0,0.0,50,0.00,,,0.00,VWS V14.01,2013-02-03 04:04:00,
2013-02-02 22:09:00,37.2,21.0,30.24,NE,45,0.0,0.0,52,0.00,,,0.00,VWS V14.01,2013-02-03 04:09:00,
2013-02-02 22:14:00,37.4,21.2,30.24,NE,45,0.0,0.0,52,0.00,,,0.00,VWS V14.01,2013-02-03 04:14:00,
2013-02-02 22:19:00,37.4,21.2,30.24,NE,45,0.0,0.0,52,0.00,,,0.00,VWS V14.01,2013-02-03 04:19:00,
2013-02-02 22:24:00,37.0,20.8,30.24,NE,45,0.0,0.0,52,0.00,,,0.00,VWS V14.01,2013-02-03 04:24:00,
2013-02-02 22:29:00,36.7,20.5,30.24,NE,45,0.0,0.0,52,0.00,,,0.00,VWS V14.01,2013-02-03 04:29:00,
2013-02-02 22:34:00,36.7,21.0,30.24,NE,45,0.0,0.0,52,0.00,,,0.00,VWS V14.01,2013-02-03 04:34:00,
2013-02-02 22:39:00,37.4,21.6,30.24,NE,45,0.0,0.0,52,0.00,,,0.00,VWS V14.01,2013-02-03 04:39:00,
2013-02-02 22:44:00,38.5,22.6,30.24,NE,45,0.0,0.0,52,0.00,,,0.00,VWS V14.01,2013-02-03 04:44:00,
2013-02-02 22:49:00,39.2,22.4,30.24,NE,45,0.0,0.0,50,0.00,,,0.00,VWS V14.01,2013-02-03 04:49:00,
2013-02-02 22:54:00,39.7,22.9,30.24,NE,45,0.0,0.0,50,0.00,,,0.00,VWS V14.01,2013-02-03 04:54:00,
2013-02-02 22:59:00,39.9,22.6,30.24,NE,45,0.0,0.0,50,0.00,,,0.00,VWS V14.01,2013-02-03 04:59:00,
2013-02-02 23:00:00,39.9,22.6,30.24,NE,45,0.0,2.7,50,0.00,,,0.00,VWS V14.01,2013-02-03 05:00:00,
2013-02-02 23:01:00,39.7,22.4,30.24,NE,45,0.0,0.0,50,0.00,,,0.00,VWS V14.01,2013-02-03 05:01:00,
2013-02-02 23:03:00,39.6,22.2,30.24,NE,45,0.0,0.0,50,0.00,,,0.00,VWS V14.01,2013-02-03 05:03:00,
2013-02-02 23:08:00,39.2,21.9,30.27,NE,45,0.0,0.0,50,0.00,,,0.00,VWS V14.01,2013-02-03 05:08:00,
2013-02-02 23:13:00,38.7,21.9,30.27,NE,45,0.0,0.0,50,0.00,,,0.00,VWS V14.01,2013-02-03 05:13:00,
2013-02-02 23:18:00,38.5,21.7,30.27,NE,45,0.0,0.0,50,0.00,,,0.00,VWS V14.01,2013-02-03 05:18:00,
2013-02-02 23:23:00,38.1,21.4,30.24,NE,45,0.0,0.0,50,0.00,,,0.00,VWS V14.01,2013-02-03 05:23:00,
2013-02-02 23:28:00,38.1,21.8,30.24,NE,45,0.0,0.0,52,0.00,,,0.00,VWS V14.01,2013-02-03 05:28:00,
2013-02-02 23:33:00,37.6,21.3,30.24,NE,45,0.0,0.0,52,0.00,,,0.00,VWS V14.01,2013-02-03 05:33:00,
2013-02-02 23:38:00,37.4,21.2,30.27,NE,45,0.0,0.0,52,0.00,,,0.00,VWS V14.01,2013-02-03 05:38:00,
2013-02-02 23:43:00,37.4,21.6,30.27,NE,45,0.0,0.0,52,0.00,,,0.00,VWS V14.01,2013-02-03 05:43:00,
2013-02-02 23:48:00,37.2,21.5,30.27,NE,45,0.0,0.0,52,0.00,,,0.00,VWS V14.01,2013-02-03 05:48:00,
2013-02-02 23:53:00,37.0,21.7,30.24,NE,45,0.0,0.0,54,0.00,,,0.00,VWS V14.01,2013-02-03 05:53:00,
2013-02-02 23:58:00,37.4,22.1,30.24,NE,45,0.0,0.0,54,0.00,,,0.00,VWS V14.01,2013-02-03 05:58:00,